This is the latest recevied weather packets stored in our database for station/object KG2V. If no packets are shown the sender has not sent any weather packets the latest 10 day(s).
| Time | Temp. | Humidity | Pressure | Rain* | Wind** | Luminosity | Snow |
|---|---|---|---|---|---|---|---|
| 1777733367 | 7.22° C | 60% | 1010.4 hPa | 0 mm | - | 348 W/m² | - |
| 1777733064 | 6.67° C | 61% | 1010.6 hPa | 0 mm | - | 113 W/m² | - |
| 1777732760 | 6.11° C | 66% | 1010.6 hPa | 0 mm | - | 287 W/m² | - |
| 1777732457 | 6.11° C | 67% | 1010.6 hPa | 0 mm | - | 125 W/m² | - |
| 1777732155 | 6.67° C | 66% | 1010.6 hPa | 0 mm | - | 228 W/m² | - |
| 1777731851 | 6.11° C | 68% | 1010.5 hPa | 0 mm | - | 149 W/m² | - |
| 1777731548 | 6.11° C | 68% | 1010.5 hPa | 0 mm | - | 346 W/m² | - |
| 1777731246 | 5.56° C | 71% | 1010.5 hPa | 0 mm | - | 179 W/m² | - |
| 1777730944 | 5.56° C | 71% | 1010.5 hPa | 0 mm | - | 199 W/m² | - |
| 1777730642 | 6.11° C | 74% | 1010.6 hPa | 0 mm | - | 69 W/m² | - |
| 1777730337 | 5.56° C | 70% | 1010.7 hPa | 0 mm | - | 183 W/m² | - |
| 1777730034 | 5° C | 73% | 1010.7 hPa | 0 mm | - | 97 W/m² | - |
| 1777729730 | 5° C | 72% | 1010.6 hPa | 0 mm | - | 94 W/m² | - |
| 1777729428 | 5° C | 75% | 1010.8 hPa | 0 mm | - | 95 W/m² | - |
| 1777729123 | 5° C | 73% | 1010.9 hPa | 0 mm | - | 78 W/m² | - |
| 1777728820 | 5° C | 75% | 1011 hPa | 0 mm | - | 187 W/m² | - |
| 1777728517 | 5° C | 74% | 1010.9 hPa | 0 mm | - | 62 W/m² | - |
| 1777728215 | 4.44° C | 74% | 1011.1 hPa | 0 mm | - | 245 W/m² | - |
| 1777727911 | 4.44° C | 77% | 1011.1 hPa | 0 mm | - | 43 W/m² | - |
| 1777727609 | 4.44° C | 76% | 1011.1 hPa | 0 mm | - | 44 W/m² | - |
| 1777727306 | 3.89° C | 77% | 1011 hPa | 0 mm | - | 41 W/m² | - |
| 1777726700 | 3.89° C | 79% | 1010.8 hPa | 0 mm | - | 39 W/m² | - |
| 1777726398 | 3.89° C | 81% | 1011 hPa | 0 mm | - | 38 W/m² | - |
| 1777726094 | 3.89° C | 82% | 1011.1 hPa | 0 mm | - | 37 W/m² | - |
| 1777725489 | 3.33° C | 81% | 1011.2 hPa | 0 mm | - | 37 W/m² | - |
* Rain latest hour (hover to see other rain measurements)
** Current wind speed in m/s (hover to see current wind gust speed)